Flag for Switzerland Weather past 2 weeks in Zürich, Zurich, Switzerland

Now
33 °F

Chilly.


Feels Like: 25 °F
Forecast: 20 / 35 °F
Wind: 12 mph from West

Location: Zurich Town / Ville.

Current Time: Jan 30, 2015 at 4:05:26 AM

Latest Report: Jan 30, 2015 at 3:00 AM


Visibility: N/A

Pressure: 28.94 "Hg

Humidity: 93%

Dew point: 31 °F

Location of ZürichLocation

Historic Weather in Zürich — Graph

°F

Zürich temperature yesterday

Maximum temperature yesterday: 37 °F (at 1:00 AM)
Minimum temperature yesterday: 32 °F (at 7:00 AM)
Average temperature yesterday: 34 °F

Past Weeks' High & Low Weather Summary

 TemperatureHumidityPressure
High47 °F (Jan 15, 9:00 PM)100% (Jan 17, 8:00 AM)30.47 "Hg (Jan 17, 8:00 AM)
Low26 °F (Jan 26, 7:00 AM)51% (Jan 15, 8:00 PM)28.88 "Hg (Jan 30, 1:00 AM)
Average33 °F88%30.02 "Hg
* Reported Jan 15 2:00 AM — Jan 30 2:00 AM, Zürich, Weather by CustomWeather, © 2014

Note: Actual official high and low records may vary slightly from our data, if they occured in-between our weather recording intervals... More about our weather records

Advertising

Zürich weather history for previous 24 hours

 ConditionsComfort  
Time TempWeatherWind HumidityBarometerVisibility
2:00 AM
Jan 30
32 °FChilly.6 mph99%28.91 "HgN/A
1:00 AM33 °FChilly.6 mph100%28.88 "HgN/A
12:00 AM34 °FChilly.3 mph98%28.91 "HgN/A
11:00 PM
Jan 29
34 °FChilly.3 mph98%28.94 "HgN/A
9:00 PM34 °FChilly.2 mph97%29.03 "HgN/A
8:00 PM34 °FChilly.3 mph95%29.09 "HgN/A
7:00 PM34 °FChilly.5 mph94%29.15 "HgN/A
6:00 PM34 °FChilly.1 mph97%29.18 "HgN/A
5:00 PM35 °FChilly.2 mph96%29.23 "HgN/A
4:00 PM35 °FChilly.5 mph94%29.29 "HgN/A
3:00 PM36 °FChilly.9 mph89%29.32 "HgN/A
2:00 PM36 °FChilly.10 mph88%29.38 "HgN/A
1:00 PM35 °FOvercast.7 mph94%29.44 "HgN/A
12:00 PM34 °FChilly.7 mph95%29.50 "HgN/A
11:00 AM33 °FChilly.7 mph97%29.58 "HgN/A
10:00 AM32 °FChilly.3 mph96%29.61 "HgN/A
9:00 AM33 °FChilly.5 mph88%29.64 "HgN/A
8:00 AM33 °FChilly.3 mph92%29.65 "HgN/A
7:00 AM32 °FChilly.3 mph99%29.67 "HgN/A
6:00 AM32 °FChilly.6 mph99%29.68 "HgN/A
5:00 AM32 °FChilly.6 mph98%29.69 "HgN/A
4:00 AM33 °FChilly.9 mph97%29.67 "HgN/A
Weather by CustomWeather, © 2014

See weather overviewHow to use our weather pages